Location: Unspecified
(48.7670°N, 0.0000°E)
Time: 22:41:41
(UTC+00:00)

A-11 Canister half - Pass Details

Date: 02 July 2019
Orbit: 1526 x 1683 km, 47.3° (Epoch: 17 July)

Event Time Altitude Azimuth Distance (km) Brightness Sun altitude
Exits shadow 01:18:34 21° 196° (SSW) 2,989 9.9 -16.3°
Maximum altitude 01:24:13 40° 142° (SE) 2,170 9.5 -16.0°
Drops below altitude 10° 01:32:44 10° 77° (ENE) 3,726 11.5 -15.5°
Sets 01:35:58 0° 71° (ENE) 4,698 12.2 -15.3°
